[TLELIST] Archives

 

[TLELIST] Current TLEs

August 23rd 2023 PDT

HST 1 20580U 90037B 23234.13669632 .00004418 00000-0 22816-3 0 9993 2 20580 28.4683 189.0125 0002400 15.4114 58.6758 15.13807098631726 ISS (ZARYA) 1 25544U 98067A 23235.37350684 .00014004 00000-0 25658-3 0 9999 2 25544 51.6420 355.7005 0003701 341.3011 56.6864 15.49586938412212 CXO 1 25867U 99040B 23236.71223183 .00000930 00000-0 00000+0 0 9994 2 25867 37.3169 188.0447 9046831 269.6617 0.8056 0.37814564 24596 ...Continue Reading

[TLELIST] Current TLEs

August 22nd 2023 PDT

HST 1 20580U 90037B 23234.13669632 .00004418 00000-0 22816-3 0 9993 2 20580 28.4683 189.0125 0002400 15.4114 58.6758 15.13807098631726 ISS (ZARYA) 1 25544U 98067A 23234.41126920 .00013845 00000-0 25401-3 0 9995 2 25544 51.6434 0.4670 0003966 334.5030 92.1262 15.49558270412065 CXO 1 25867U 99040B 23236.71189315 .00000930 00000-0 00000+0 0 9992 2 25867 37.3185 188.0555 9046835 269.6512 0.7606 0.37815729 24596 ...Continue Reading

[TLELIST] Current TLEs

August 22nd 2023 PDT

HST 1 20580U 90037B 23234.13669632 .00004418 00000-0 22816-3 0 9993 2 20580 28.4683 189.0125 0002400 15.4114 58.6758 15.13807098631726 ISS (ZARYA) 1 25544U 98067A 23234.41126920 .00013845 00000-0 25401-3 0 9995 2 25544 51.6434 0.4670 0003966 334.5030 92.1262 15.49558270412065 CXO 1 25867U 99040B 23236.71189315 .00000930 00000-0 00000+0 0 9992 2 25867 37.3185 188.0555 9046835 269.6512 0.7606 0.37815729 24596 ...Continue Reading

[TLELIST] Current TLEs

August 22nd 2023 PDT

HST 1 20580U 90037B 23234.13669632 .00004418 00000-0 22816-3 0 9993 2 20580 28.4683 189.0125 0002400 15.4114 58.6758 15.13807098631726 ISS (ZARYA) 1 25544U 98067A 23234.41126920 .00013845 00000-0 25401-3 0 9995 2 25544 51.6434 0.4670 0003966 334.5030 92.1262 15.49558270412065 CXO 1 25867U 99040B 23236.71189315 .00000930 00000-0 00000+0 0 9992 2 25867 37.3185 188.0555 9046835 269.6512 0.7606 0.37815729 24596 ...Continue Reading

[TLELIST] Current TLEs

August 21st 2023 PDT

HST 1 20580U 90037B 23232.36677959 .00004612 00000-0 23874-3 0 9998 2 20580 28.4683 200.7987 0002332 356.3438 133.0735 15.13792495631450 ISS (ZARYA) 1 25544U 98067A 23233.37607601 .00013971 00000-0 25651-3 0 9996 2 25544 51.6417 5.5908 0003749 330.9649 77.1775 15.49529111411907 CXO 1 25867U 99040B 23234.06973269 .00000894 00000-0 00000+0 0 9996 2 25867 37.3261 188.3100 9049099 269.4513 0.9760 0.37817421 24587 ...Continue Reading

[TLELIST] Current TLEs

August 20th 2023 PDT

HST 1 20580U 90037B 23231.22614346 .00004541 00000-0 23495-3 0 9993 2 20580 28.4682 208.3942 0002270 343.8037 37.1964 15.13782847631280 ISS (ZARYA) 1 25544U 98067A 23232.41742277 .00013907 00000-0 25560-3 0 9997 2 25544 51.6413 10.3337 0003547 329.3103 127.6947 15.49502583411755 CXO 1 25867U 99040B 23234.06973269 .00000894 00000-0 00000+0 0 9996 2 25867 37.3261 188.3100 9049099 269.4513 0.9760 0.37817421 24587 ...Continue Reading

[TLELIST] Current TLEs

August 19th 2023 PDT

HST 1 20580U 90037B 23231.22614346 .00004541 00000-0 23495-3 0 9993 2 20580 28.4682 208.3942 0002270 343.8037 37.1964 15.13782847631280 ISS (ZARYA) 1 25544U 98067A 23231.38520388 .00014432 00000-0 26518-3 0 9997 2 25544 51.6419 15.4462 0003793 325.7455 129.5830 15.49475536411590 CXO 1 25867U 99040B 23231.42338951 .00000852 00000-0 00000+0 0 9990 2 25867 37.3309 188.6202 9052319 269.2024 0.6758 0.37814520 24570 ...Continue Reading

[TLELIST] Current TLEs

August 18th 2023 PDT

HST 1 20580U 90037B 23230.04120477 .00004491 00000-0 23234-3 0 9994 2 20580 28.4680 216.2850 0002223 329.9506 60.7585 15.13772516631102 ISS (ZARYA) 1 25544U 98067A 23230.35210672 .00012884 00000-0 23794-3 0 9997 2 25544 51.6417 20.5591 0003553 321.0187 127.8236 15.49439945411431 CXO 1 25867U 99040B 23231.42338951 .00000852 00000-0 00000+0 0 9990 2 25867 37.3309 188.6202 9052319 269.2024 0.6758 0.37814520 24570 ...Continue Reading

[TLELIST] Current TLEs

August 17th 2023 PDT

HST 1 20580U 90037B 23228.74945833 .00004301 00000-0 22217-3 0 9999 2 20580 28.4680 224.8871 0002187 314.5320 222.7194 15.13761622630913 ISS (ZARYA) 1 25544U 98067A 23229.45034096 .00013613 00000-0 25113-3 0 9998 2 25544 51.6404 25.0238 0003436 316.6591 138.8675 15.49417200411297 CXO 1 25867U 99040B 23231.42338951 .00000852 00000-0 00000+0 0 9990 2 25867 37.3309 188.6202 9052319 269.2024 0.6758 0.37814520 24570 ...Continue Reading

[TLELIST] Current TLEs

August 16th 2023 PDT

HST 1 20580U 90037B 23227.41916174 .00004132 00000-0 21309-3 0 9991 2 20580 28.4678 233.7458 0002148 298.5932 174.7528 15.13751154630700 ISS (ZARYA) 1 25544U 98067A 23228.35031179 .00012529 00000-0 23206-3 0 9991 2 25544 51.6396 30.4716 0003448 309.8501 125.8326 15.49386431411128 CXO 1 25867U 99040B 23228.77773817 .00000776 00000-0 00000+0 0 9993 2 25867 37.3385 188.9910 9054604 268.8898 0.5129 0.37812847 24566 ...Continue Reading
  • This mailing list is a public mailing list - anyone may join or leave, at any time.
  • This mailing list is announce-only.

International Space Station (ISS) / Hubble Space Telescope (HST) / Chandra X-Ray Observatory Orbital Data via EMAIL

Privacy Policy:

Private list